小惑星A/2017 U7

A/2017 U7

English version
Home page
Updated on May 20, 2019

---------------------------------------------------------------------

・ プロフィール

発見日 2017年10月29日
発見光度 20.1等
発見者 Pan-STARRS 1 telescope (Haleakala)

・ 写真集

・ 軌道要素

Epoch 2019 Aug. 25.0 TT = JDT 2458720.5
T 2019 Sept. 11.26851 TT                                MPCW
q   6.4173438            (2000.0)            P               Q
z  -0.0001177      Peri.  326.03103     +0.53149658     -0.59459338
 +/-0.0000007      Node   276.23267     -0.57728942     -0.77547103
e   1.0007552      Incl.  142.63528     -0.61987765     +0.21237558
From 155 observations 2017 Aug. 18-2019 Mar. 27, mean residual 0".3.

・ 光度変化

        m1 = -12 + 5 logΔ + 30 log r

---------------------------------------------------------------------

軌道要素はM.P.E.C. 2019-J142に掲載されたものです。
光度グラフはComet for Windowsで作成したものです。

---------------------------------------------------------------------

Copyright(C) Seiichi Yoshida (comet@aerith.net). All rights reserved.